User: anonymous   Login
Location: Gad�tanya
(48.0500°N, 20.8500°E)
Time: 00:30:36
(UTC+00:00)
Language:

CZ-4C R/B - Orbit

View from above orbital plane
View from above orbital plane
View from above satellite
View from above satellite

Ground track
Ground track

The orbit data is extracted from the following two-line orbital elements,

1 36416U 10009D   20271.41559025 -.00000044 +00000-0 +30353-4 0  9990
2 36416 063.4225 286.8359 0504790 355.3172 004.3234 13.69573366528310
Epoch (UTC): 27 September 2020 09:58:26
Eccentricity: 0.0504790
inclination: 63.4225°
perigee height: 628 km
apogee height: 1373 km
right ascension of ascending node: 286.8359°
argument of perigee: 355.3172°
revolutions per day: 13.69573366
mean anomaly at epoch: 4.3234°
orbit number at epoch: 52831

The dashed part of the orbit path shows where the satellite is in the earth's shadow,  

DLR